Date,TemperatureHighF,TemperatureAvgF,TemperatureLowF,DewpointHighF,DewpointAvgF,DewpointLowF,HumidityHigh,HumidityAvg,HumidityLow,PressureMaxIn,PressureMinIn,WindSpeedMaxMPH,WindSpeedAvgMPH,GustSpeedMaxMPH,PrecipitationSumIn
2013-5-1,54,54,54,45,45,45,71,71,71,30.30,30.30,0,0,0,0.00
2013-5-4,66,59,54,41,40,37,58,50,40,30.18,30.11,4,1,4,0.00
2013-5-5,53,51,50,39,38,38,63,62,59,30.16,30.16,0,0,0,0.00
2013-5-7,62,60,57,60,58,53,95,93,87,29.96,29.87,7,3,7,0.53
2013-5-8,69,60,53,58,54,50,96,81,56,29.96,29.88,7,1,7,0.20
2013-5-9,54,52,51,53,50,49,95,93,91,29.93,29.92,0,0,0,0.00
2013-5-10,66,63,62,62,60,59,95,92,87,29.91,29.83,3,0,3,0.49
2013-5-11,78,70,62,64,61,57,95,75,56,29.84,29.68,9,2,9,0.00
2013-5-12,60,54,44,29,27,25,55,36,28,29.99,29.86,11,3,11,0.00
2013-5-13,57,53,43,29,24,20,56,33,25,30.07,29.98,14,5,14,0.00
2013-5-14,41,41,41,35,35,35,79,79,79,30.17,30.17,0,0,1,0.00
2013-5-15,63,62,59,51,49,47,65,64,63,29.87,29.83,3,1,3,0.00
2013-5-16,70,68,66,55,55,53,68,62,58,29.90,29.87,3,1,3,0.00
2013-5-17,74,67,61,59,55,53,77,66,59,30.06,29.90,1,0,1,0.00
2013-5-20,81,80,80,66,66,64,62,61,59,29.95,29.93,9,3,9,0.00
2013-5-21,69,69,68,63,63,62,82,82,82,29.95,29.95,0,0,0,0.00
2013-5-22,71,67,66,65,64,63,93,89,75,29.90,29.83,3,0,3,0.33
2013-5-23,72,65,63,64,63,61,95,92,74,29.86,29.70,7,1,13,0.14
2013-5-24,52,52,52,42,42,42,68,68,68,29.92,29.92,7,7,7,0.00
2013-5-25,63,58,49,37,34,32,59,41,31,30.17,30.08,10,5,10,0.00
2013-5-26,59,58,57,37,36,36,47,45,42,30.19,30.14,0,0,0,0.00
2013-5-27,56,53,51,38,38,36,60,56,46,30.20,30.19,0,0,0,0.00
2013-5-29,83,79,77,65,64,64,64,61,54,30.03,30.02,2,0,2,0.00